Year,Month,Day,Hour,Minute,Value (Times are PST for temperature in C)
2016,07,16,00,00,17.80
2016,07,16,00,01,17.70
2016,07,16,00,02,17.70
2016,07,16,00,03,17.70
2016,07,16,00,04,17.70
2016,07,16,00,05,17.70
2016,07,16,00,06,17.70
2016,07,16,00,07,17.70
2016,07,16,00,08,17.70
2016,07,16,00,09,17.60
2016,07,16,00,10,17.60
2016,07,16,00,11,17.60
2016,07,16,00,12,17.50
2016,07,16,00,13,17.50
2016,07,16,00,14,17.50
2016,07,16,00,15,17.50
2016,07,16,00,16,17.50
2016,07,16,00,17,17.50
2016,07,16,00,18,17.50
2016,07,16,00,19,17.40
2016,07,16,00,20,17.40
2016,07,16,00,21,17.40
2016,07,16,00,22,17.40
2016,07,16,00,23,17.40
2016,07,16,00,24,17.30
2016,07,16,00,25,17.30
2016,07,16,00,26,17.30
2016,07,16,00,27,17.30
2016,07,16,00,28,17.30
2016,07,16,00,29,17.40
2016,07,16,00,30,17.40
2016,07,16,00,31,17.40
2016,07,16,00,32,17.40
2016,07,16,00,33,17.40
2016,07,16,00,34,17.40
2016,07,16,00,35,17.40
2016,07,16,00,36,17.40
2016,07,16,00,37,17.50
2016,07,16,00,38,17.50
2016,07,16,00,39,17.60
2016,07,16,00,40,17.60
2016,07,16,00,41,17.50
2016,07,16,00,42,17.50
2016,07,16,00,43,17.50
2016,07,16,00,44,17.40
2016,07,16,00,45,17.40
2016,07,16,00,46,17.40
2016,07,16,00,47,17.30
2016,07,16,00,48,17.30
2016,07,16,00,49,17.30
2016,07,16,00,50,17.30
2016,07,16,00,51,17.30
2016,07,16,00,52,17.30
2016,07,16,00,53,17.30
2016,07,16,00,54,17.30
2016,07,16,00,55,17.30
2016,07,16,00,56,17.30
2016,07,16,00,57,17.30
2016,07,16,00,58,17.30
2016,07,16,00,59,17.30
2016,07,16,01,00,17.30
2016,07,16,01,01,17.30
2016,07,16,01,02,17.30
2016,07,16,01,03,17.20
2016,07,16,01,04,17.20
2016,07,16,01,05,17.20
2016,07,16,01,06,17.20
2016,07,16,01,07,17.20
2016,07,16,01,08,17.20
2016,07,16,01,09,17.20
2016,07,16,01,10,17.20
2016,07,16,01,11,17.20
2016,07,16,01,12,17.20
2016,07,16,01,13,17.20
2016,07,16,01,14,17.20
2016,07,16,01,15,17.20
2016,07,16,01,16,17.20
2016,07,16,01,17,17.20
2016,07,16,01,18,17.20
2016,07,16,01,19,17.20
2016,07,16,01,20,17.10
2016,07,16,01,21,17.10
2016,07,16,01,22,17.10
2016,07,16,01,23,17.20
2016,07,16,01,24,17.20
2016,07,16,01,25,17.20
2016,07,16,01,26,17.10
2016,07,16,01,27,17.10
2016,07,16,01,28,17.10
2016,07,16,01,29,17.10
2016,07,16,01,30,17.10
2016,07,16,01,31,17.00
2016,07,16,01,32,17.00
2016,07,16,01,33,17.00
2016,07,16,01,34,17.00
2016,07,16,01,35,17.00
2016,07,16,01,36,16.90
2016,07,16,01,37,16.90
2016,07,16,01,38,16.90
2016,07,16,01,39,16.90
2016,07,16,01,40,16.90
2016,07,16,01,41,16.80
2016,07,16,01,42,16.70
2016,07,16,01,43,16.60
2016,07,16,01,44,16.50
2016,07,16,01,45,16.50
2016,07,16,01,46,16.40
2016,07,16,01,47,16.40
2016,07,16,01,48,16.40
2016,07,16,01,49,16.30
2016,07,16,01,50,16.30
2016,07,16,01,51,16.20
2016,07,16,01,52,16.20
2016,07,16,01,53,16.10
2016,07,16,01,54,16.10
2016,07,16,01,55,16.00
2016,07,16,01,56,15.90
2016,07,16,01,57,15.90
2016,07,16,01,58,15.90
2016,07,16,01,59,15.80
2016,07,16,02,00,15.80
2016,07,16,02,01,15.80
2016,07,16,02,02,15.80
2016,07,16,02,03,15.80
2016,07,16,02,04,15.70
2016,07,16,02,05,15.70
2016,07,16,02,06,15.70
2016,07,16,02,07,15.60
2016,07,16,02,08,15.60
2016,07,16,02,09,15.60
2016,07,16,02,10,15.50
2016,07,16,02,11,15.50
2016,07,16,02,12,15.40
2016,07,16,02,13,15.40
2016,07,16,02,14,15.40
2016,07,16,02,15,15.50
2016,07,16,02,16,15.50
2016,07,16,02,17,15.50
2016,07,16,02,18,15.60
2016,07,16,02,19,15.60
2016,07,16,02,20,15.60
2016,07,16,02,21,15.60
2016,07,16,02,22,15.50
2016,07,16,02,23,15.50
2016,07,16,02,24,15.50
2016,07,16,02,25,15.60
2016,07,16,02,26,15.60
2016,07,16,02,27,15.70
2016,07,16,02,28,15.80
2016,07,16,02,29,15.80
2016,07,16,02,30,15.80
2016,07,16,02,31,15.80
2016,07,16,02,32,15.70
2016,07,16,02,33,15.70
2016,07,16,02,34,15.60
2016,07,16,02,35,15.60
2016,07,16,02,36,15.60
2016,07,16,02,37,15.60
2016,07,16,02,38,15.60
2016,07,16,02,39,15.60
2016,07,16,02,40,15.60
2016,07,16,02,41,15.50
2016,07,16,02,42,15.40
2016,07,16,02,43,15.40
2016,07,16,02,44,15.30
2016,07,16,02,45,15.30
2016,07,16,02,46,15.30
2016,07,16,02,47,15.20
2016,07,16,02,48,15.20
2016,07,16,02,49,15.10
2016,07,16,02,50,15.00
2016,07,16,02,51,14.90
2016,07,16,02,52,14.80
2016,07,16,02,53,14.80
2016,07,16,02,54,14.70
2016,07,16,02,55,14.70
2016,07,16,02,56,14.70
2016,07,16,02,57,14.60
2016,07,16,02,58,14.60
2016,07,16,02,59,14.60
2016,07,16,03,00,14.60
2016,07,16,03,01,14.60
2016,07,16,03,02,14.50
2016,07,16,03,03,14.50
2016,07,16,03,04,14.50
2016,07,16,03,05,14.50
2016,07,16,03,06,14.50
2016,07,16,03,07,14.50
2016,07,16,03,08,14.40
2016,07,16,03,09,14.40
2016,07,16,03,10,14.40
2016,07,16,03,11,14.40
2016,07,16,03,12,14.40
2016,07,16,03,13,14.40
2016,07,16,03,14,14.40
2016,07,16,03,15,14.40
2016,07,16,03,16,14.40
2016,07,16,03,17,14.40
2016,07,16,03,18,14.40
2016,07,16,03,19,14.30
2016,07,16,03,20,14.30
2016,07,16,03,21,14.30
2016,07,16,03,22,14.30
2016,07,16,03,23,14.30
2016,07,16,03,24,14.30
2016,07,16,03,25,14.40
2016,07,16,03,26,14.40
2016,07,16,03,27,14.40
2016,07,16,03,28,14.40
2016,07,16,03,29,14.40
2016,07,16,03,30,14.40
2016,07,16,03,31,14.40
2016,07,16,03,32,14.40
2016,07,16,03,33,14.30
2016,07,16,03,34,14.30
2016,07,16,03,35,14.30
2016,07,16,03,36,14.30
2016,07,16,03,37,14.30
2016,07,16,03,38,14.30
2016,07,16,03,39,14.30
2016,07,16,03,40,14.30
2016,07,16,03,41,14.30
2016,07,16,03,42,14.30
2016,07,16,03,43,14.30
2016,07,16,03,44,14.30
2016,07,16,03,45,14.30
2016,07,16,03,46,14.30
2016,07,16,03,47,14.30
2016,07,16,03,48,14.30
2016,07,16,03,49,14.30
2016,07,16,03,50,14.30
2016,07,16,03,51,14.30
2016,07,16,03,52,14.30
2016,07,16,03,53,14.20
2016,07,16,03,54,14.20
2016,07,16,03,55,14.20
2016,07,16,03,56,14.20
2016,07,16,03,57,14.20
2016,07,16,03,58,14.10
2016,07,16,03,59,14.10
2016,07,16,04,00,14.10
2016,07,16,04,01,14.10
2016,07,16,04,02,14.10
2016,07,16,04,03,14.10
2016,07,16,04,04,14.10
2016,07,16,04,05,14.10
2016,07,16,04,06,14.10
2016,07,16,04,07,14.10
2016,07,16,04,08,14.10
2016,07,16,04,09,14.10
2016,07,16,04,10,14.10
2016,07,16,04,11,14.10
2016,07,16,04,12,14.10
2016,07,16,04,13,14.10
2016,07,16,04,14,14.10
2016,07,16,04,15,14.10
2016,07,16,04,16,14.10
2016,07,16,04,17,14.10
2016,07,16,04,18,14.00
2016,07,16,04,19,14.00
2016,07,16,04,20,14.00
2016,07,16,04,21,13.90
2016,07,16,04,22,13.90
2016,07,16,04,23,13.90
2016,07,16,04,24,13.90
2016,07,16,04,25,13.80
2016,07,16,04,26,13.80
2016,07,16,04,27,13.70
2016,07,16,04,28,13.70
2016,07,16,04,29,13.60
2016,07,16,04,30,13.60
2016,07,16,04,31,13.60
2016,07,16,04,32,13.60
2016,07,16,04,33,13.60
2016,07,16,04,34,13.60
2016,07,16,04,35,13.50
2016,07,16,04,36,13.50
2016,07,16,04,37,13.50
2016,07,16,04,38,13.50
2016,07,16,04,39,13.40
2016,07,16,04,40,13.40
2016,07,16,04,41,13.40
2016,07,16,04,42,13.40
2016,07,16,04,43,13.40
2016,07,16,04,44,13.40
2016,07,16,04,45,13.30
2016,07,16,04,46,13.30
2016,07,16,04,47,13.30
2016,07,16,04,48,13.30
2016,07,16,04,49,13.30
2016,07,16,04,50,13.30
2016,07,16,04,51,13.20
2016,07,16,04,52,13.20
2016,07,16,04,53,13.20
2016,07,16,04,54,13.20
2016,07,16,04,55,13.20
2016,07,16,04,56,13.10
2016,07,16,04,57,13.10
2016,07,16,04,58,13.10
2016,07,16,04,59,13.10
2016,07,16,05,00,13.10
2016,07,16,05,01,13.00
2016,07,16,05,02,13.00
2016,07,16,05,03,13.00
2016,07,16,05,04,13.00
2016,07,16,05,05,12.90
2016,07,16,05,06,12.90
2016,07,16,05,07,12.90
2016,07,16,05,08,12.90
2016,07,16,05,09,12.90
2016,07,16,05,10,12.90
2016,07,16,05,11,12.90
2016,07,16,05,12,12.80
2016,07,16,05,13,12.80
2016,07,16,05,14,12.80
2016,07,16,05,15,12.80
2016,07,16,05,16,12.80
2016,07,16,05,17,12.80
2016,07,16,05,18,12.80
2016,07,16,05,19,12.80
2016,07,16,05,20,12.80
2016,07,16,05,21,12.80
2016,07,16,05,22,12.80
2016,07,16,05,23,12.80
2016,07,16,05,24,12.80
2016,07,16,05,25,12.80
2016,07,16,05,26,12.80
2016,07,16,05,27,12.80
2016,07,16,05,28,12.80
2016,07,16,05,29,12.80
2016,07,16,05,30,12.80
2016,07,16,05,31,12.80
2016,07,16,05,32,12.90
2016,07,16,05,33,12.90
2016,07,16,05,34,12.90
2016,07,16,05,35,12.90
2016,07,16,05,36,12.90
2016,07,16,05,37,12.90
2016,07,16,05,38,12.90
2016,07,16,05,39,12.90
2016,07,16,05,40,12.90
2016,07,16,05,41,12.90
2016,07,16,05,42,12.90
2016,07,16,05,43,12.90
2016,07,16,05,44,12.90
2016,07,16,05,45,12.90
2016,07,16,05,46,13.00
2016,07,16,05,47,13.00
2016,07,16,05,48,13.00
2016,07,16,05,49,13.00
2016,07,16,05,50,13.00
2016,07,16,05,51,13.00
2016,07,16,05,52,13.00
2016,07,16,05,53,13.00
2016,07,16,05,54,13.00
2016,07,16,05,55,13.00
2016,07,16,05,56,13.00
2016,07,16,05,57,13.00
2016,07,16,05,58,13.00
2016,07,16,05,59,13.00
2016,07,16,06,00,13.00
2016,07,16,06,01,13.00
2016,07,16,06,02,13.00
2016,07,16,06,03,13.00
2016,07,16,06,04,13.00
2016,07,16,06,05,13.10
2016,07,16,06,06,13.10
2016,07,16,06,07,13.10
2016,07,16,06,08,13.10
2016,07,16,06,09,13.10
2016,07,16,06,10,13.10
2016,07,16,06,11,13.10
2016,07,16,06,12,13.10
2016,07,16,06,13,13.10
2016,07,16,06,14,13.20
2016,07,16,06,15,13.20
2016,07,16,06,16,13.20
2016,07,16,06,17,13.20
2016,07,16,06,18,13.20
2016,07,16,06,19,13.20
2016,07,16,06,20,13.20
2016,07,16,06,21,13.30
2016,07,16,06,22,13.30
2016,07,16,06,23,13.30
2016,07,16,06,24,13.30
2016,07,16,06,25,13.30
2016,07,16,06,26,13.40
2016,07,16,06,27,13.40
2016,07,16,06,28,13.40
2016,07,16,06,29,13.40
2016,07,16,06,30,13.40
2016,07,16,06,31,13.50
2016,07,16,06,32,13.50
2016,07,16,06,33,13.50
2016,07,16,06,34,13.50
2016,07,16,06,35,13.50
2016,07,16,06,36,13.60
2016,07,16,06,37,13.60
2016,07,16,06,38,13.60
2016,07,16,06,39,13.60
2016,07,16,06,40,13.60
2016,07,16,06,41,13.60
2016,07,16,06,42,13.60
2016,07,16,06,43,13.60
2016,07,16,06,44,13.70
2016,07,16,06,45,13.70
2016,07,16,06,46,13.70
2016,07,16,06,47,13.70
2016,07,16,06,48,13.70
2016,07,16,06,49,13.70
2016,07,16,06,50,13.70
2016,07,16,06,51,13.80
2016,07,16,06,52,13.80
2016,07,16,06,53,13.80
2016,07,16,06,54,13.80
2016,07,16,06,55,13.80
2016,07,16,06,56,13.80
2016,07,16,06,57,13.90
2016,07,16,06,58,13.90
2016,07,16,06,59,13.90
2016,07,16,07,00,13.90
2016,07,16,07,01,13.90
2016,07,16,07,02,13.90
2016,07,16,07,03,13.90
2016,07,16,07,04,13.90
2016,07,16,07,05,13.90
2016,07,16,07,06,13.90
2016,07,16,07,07,13.90
2016,07,16,07,08,13.90
2016,07,16,07,09,13.90
2016,07,16,07,10,13.90
2016,07,16,07,11,13.90
2016,07,16,07,12,13.90
2016,07,16,07,13,13.90
2016,07,16,07,14,13.90
2016,07,16,07,15,13.90
2016,07,16,07,16,13.90
2016,07,16,07,17,13.90
2016,07,16,07,18,13.90
2016,07,16,07,19,13.90
2016,07,16,07,20,13.90
2016,07,16,07,21,13.90
2016,07,16,07,22,14.00
2016,07,16,07,23,14.00
2016,07,16,07,24,14.00
2016,07,16,07,25,14.00
2016,07,16,07,26,14.00
2016,07,16,07,27,14.00
2016,07,16,07,28,14.00
2016,07,16,07,29,14.00
2016,07,16,07,30,14.00
2016,07,16,07,31,14.00
2016,07,16,07,32,14.00
2016,07,16,07,33,14.00
2016,07,16,07,34,14.10
2016,07,16,07,35,14.10
2016,07,16,07,36,14.10
2016,07,16,07,37,14.10
2016,07,16,07,38,14.10
2016,07,16,07,39,14.10
2016,07,16,07,40,14.10
2016,07,16,07,41,14.10
2016,07,16,07,42,14.10
2016,07,16,07,43,14.10
2016,07,16,07,44,14.10
2016,07,16,07,45,14.10
2016,07,16,07,46,14.10
2016,07,16,07,47,14.20
2016,07,16,07,48,14.20
2016,07,16,07,49,14.20
2016,07,16,07,50,14.20
2016,07,16,07,51,14.20
2016,07,16,07,52,14.20
2016,07,16,07,53,14.20
2016,07,16,07,54,14.20
2016,07,16,07,55,14.20
2016,07,16,07,56,14.20
2016,07,16,07,57,14.20
2016,07,16,07,58,14.20
2016,07,16,07,59,14.20
2016,07,16,08,00,14.20
2016,07,16,08,01,14.20
2016,07,16,08,02,14.30
2016,07,16,08,03,14.30
2016,07,16,08,04,14.30
2016,07,16,08,05,14.30
2016,07,16,08,06,14.30
2016,07,16,08,07,14.30
2016,07,16,08,08,14.30
2016,07,16,08,09,14.30
2016,07,16,08,10,14.30
2016,07,16,08,11,14.40
2016,07,16,08,12,14.40
2016,07,16,08,13,14.40
2016,07,16,08,14,14.40
2016,07,16,08,15,14.40
2016,07,16,08,16,14.40
2016,07,16,08,17,14.40
2016,07,16,08,18,14.40
2016,07,16,08,19,14.40
2016,07,16,08,20,14.50
2016,07,16,08,21,14.50
2016,07,16,08,22,14.50
2016,07,16,08,23,14.50
2016,07,16,08,24,14.60
2016,07,16,08,25,14.60
2016,07,16,08,26,14.60
2016,07,16,08,27,14.60
2016,07,16,08,28,14.60
2016,07,16,08,29,14.60
2016,07,16,08,30,14.60
2016,07,16,08,31,14.60
2016,07,16,08,32,14.60
2016,07,16,08,33,14.60
2016,07,16,08,34,14.60
2016,07,16,08,35,14.60
2016,07,16,08,36,14.60
2016,07,16,08,37,14.60
2016,07,16,08,38,14.60
2016,07,16,08,39,14.60
2016,07,16,08,40,14.60
2016,07,16,08,41,14.60
2016,07,16,08,42,14.60
2016,07,16,08,43,14.50
2016,07,16,08,44,14.50
2016,07,16,08,45,14.50
2016,07,16,08,46,14.50
2016,07,16,08,47,14.50
2016,07,16,08,48,14.50
2016,07,16,08,49,14.50
2016,07,16,08,50,14.50
2016,07,16,08,51,14.50
2016,07,16,08,52,14.50
2016,07,16,08,53,14.50
2016,07,16,08,54,14.40
2016,07,16,08,55,14.40
2016,07,16,08,56,14.40
2016,07,16,08,57,14.40
2016,07,16,08,58,14.30
2016,07,16,08,59,14.30
2016,07,16,09,00,14.30
2016,07,16,09,01,14.30
2016,07,16,09,02,14.30
2016,07,16,09,03,14.30
2016,07,16,09,04,14.30
2016,07,16,09,05,14.30
2016,07,16,09,06,14.30
2016,07,16,09,07,14.30
2016,07,16,09,08,14.30
2016,07,16,09,09,14.30
2016,07,16,09,10,14.30
2016,07,16,09,11,14.30
2016,07,16,09,12,14.30
2016,07,16,09,13,14.30
2016,07,16,09,14,14.30
2016,07,16,09,15,14.30
2016,07,16,09,16,14.30
2016,07,16,09,17,14.30
2016,07,16,09,18,14.30
2016,07,16,09,19,14.30
2016,07,16,09,20,14.30
2016,07,16,09,21,14.30
2016,07,16,09,22,14.30
2016,07,16,09,23,14.40
2016,07,16,09,24,14.40
2016,07,16,09,25,14.40
2016,07,16,09,26,14.40
2016,07,16,09,27,14.40
2016,07,16,09,28,14.40
2016,07,16,09,29,14.40
2016,07,16,09,30,14.50
2016,07,16,09,31,14.50
2016,07,16,09,32,14.50
2016,07,16,09,33,14.50
2016,07,16,09,34,14.60
2016,07,16,09,35,14.60
2016,07,16,09,36,14.60
2016,07,16,09,37,14.70
2016,07,16,09,38,14.70
2016,07,16,09,39,14.70
2016,07,16,09,40,14.70
2016,07,16,09,41,14.80
2016,07,16,09,42,14.80
2016,07,16,09,43,14.80
2016,07,16,09,44,14.90
2016,07,16,09,45,14.90
2016,07,16,09,46,15.00
2016,07,16,09,47,15.10
2016,07,16,09,48,15.10
2016,07,16,09,49,15.20
2016,07,16,09,50,15.30
2016,07,16,09,51,15.30
2016,07,16,09,52,15.50
2016,07,16,09,53,15.60
2016,07,16,09,54,15.70
2016,07,16,09,55,15.80
2016,07,16,09,56,15.80
2016,07,16,09,57,15.80
2016,07,16,09,58,15.90
2016,07,16,09,59,15.90
2016,07,16,10,00,16.00
2016,07,16,10,01,16.10
2016,07,16,10,02,16.10
2016,07,16,10,03,16.20
2016,07,16,10,04,16.30
2016,07,16,10,05,16.30
2016,07,16,10,06,16.40
2016,07,16,10,07,16.50
2016,07,16,10,08,16.60
2016,07,16,10,09,16.70
2016,07,16,10,10,16.80
2016,07,16,10,11,16.80
2016,07,16,10,12,16.90
2016,07,16,10,13,17.00
2016,07,16,10,14,17.10
2016,07,16,10,15,17.10
2016,07,16,10,16,17.20
2016,07,16,10,17,17.30
2016,07,16,10,18,17.30
2016,07,16,10,19,17.40
2016,07,16,10,20,17.40
2016,07,16,10,21,17.50
2016,07,16,10,22,17.50
2016,07,16,10,23,17.60
2016,07,16,10,24,17.70
2016,07,16,10,25,17.70
2016,07,16,10,26,17.80
2016,07,16,10,27,17.80
2016,07,16,10,28,17.80
2016,07,16,10,29,17.80
2016,07,16,10,30,17.70
2016,07,16,10,31,17.70
2016,07,16,10,32,17.70
2016,07,16,10,33,17.70
2016,07,16,10,34,17.70
2016,07,16,10,35,17.70
2016,07,16,10,36,17.70
2016,07,16,10,37,17.70
2016,07,16,10,38,17.60
2016,07,16,10,39,17.60
2016,07,16,10,40,17.60
2016,07,16,10,41,17.60
2016,07,16,10,42,17.70
2016,07,16,10,43,17.70
2016,07,16,10,44,17.70
2016,07,16,10,45,17.80
2016,07,16,10,46,17.80
2016,07,16,10,47,17.80
2016,07,16,10,48,17.80
2016,07,16,10,49,17.80
2016,07,16,10,50,17.70
2016,07,16,10,51,17.70
2016,07,16,10,52,17.70
2016,07,16,10,53,17.70
2016,07,16,10,54,17.70
2016,07,16,10,55,17.80
2016,07,16,10,56,17.80
2016,07,16,10,57,17.90
2016,07,16,10,58,17.90
2016,07,16,10,59,18.00
2016,07,16,11,00,18.00
2016,07,16,11,01,18.00
2016,07,16,11,02,18.00
2016,07,16,11,03,18.00
2016,07,16,11,04,18.00
2016,07,16,11,05,18.00
2016,07,16,11,06,18.00
2016,07,16,11,07,18.00
2016,07,16,11,08,18.00
2016,07,16,11,09,18.00
2016,07,16,11,10,17.90
2016,07,16,11,11,17.90
2016,07,16,11,12,17.90
2016,07,16,11,13,17.80
2016,07,16,11,14,17.80
2016,07,16,11,15,17.80
2016,07,16,11,16,17.80
2016,07,16,11,17,17.80
2016,07,16,11,18,17.80
2016,07,16,11,19,17.80
2016,07,16,11,20,17.80
2016,07,16,11,21,17.80
2016,07,16,11,22,17.80
2016,07,16,11,23,17.80
2016,07,16,11,24,17.80
2016,07,16,11,25,17.80
2016,07,16,11,26,17.80
2016,07,16,11,27,17.80
2016,07,16,11,28,17.80
2016,07,16,11,29,17.80
2016,07,16,11,30,17.80
2016,07,16,11,31,17.80
2016,07,16,11,32,17.80
2016,07,16,11,33,17.80
2016,07,16,11,34,17.80
2016,07,16,11,35,17.80
2016,07,16,11,36,17.80
2016,07,16,11,37,17.90
2016,07,16,11,38,17.90
2016,07,16,11,39,17.90
2016,07,16,11,40,17.90
2016,07,16,11,41,17.90
2016,07,16,11,42,17.90
2016,07,16,11,43,17.90
2016,07,16,11,44,17.90
2016,07,16,11,45,17.90
2016,07,16,11,46,17.90
2016,07,16,11,47,17.90
2016,07,16,11,48,17.90
2016,07,16,11,49,17.90
2016,07,16,11,50,17.90
2016,07,16,11,51,17.90
2016,07,16,11,52,17.90
2016,07,16,11,53,17.90
2016,07,16,11,54,17.90
2016,07,16,11,55,17.90
2016,07,16,11,56,18.00
2016,07,16,11,57,18.10
2016,07,16,11,58,18.10
2016,07,16,11,59,18.10
2016,07,16,12,00,18.10
2016,07,16,12,01,18.20
2016,07,16,12,02,18.20
2016,07,16,12,03,18.20
2016,07,16,12,04,18.20
2016,07,16,12,05,18.20
2016,07,16,12,06,18.30
2016,07,16,12,07,18.30
2016,07,16,12,08,18.30
2016,07,16,12,09,18.40
2016,07,16,12,10,18.50
2016,07,16,12,11,18.50
2016,07,16,12,12,18.60
2016,07,16,12,13,18.70
2016,07,16,12,14,18.70
2016,07,16,12,15,18.80
2016,07,16,12,16,18.90
2016,07,16,12,17,18.90
2016,07,16,12,18,18.90
2016,07,16,12,19,18.90
2016,07,16,12,20,18.90
2016,07,16,12,21,18.90
2016,07,16,12,22,18.90
2016,07,16,12,23,18.90
2016,07,16,12,24,19.00
2016,07,16,12,25,19.00
2016,07,16,12,26,19.10
2016,07,16,12,27,19.10
2016,07,16,12,28,19.10
2016,07,16,12,29,19.10
2016,07,16,12,30,19.00
2016,07,16,12,31,18.90
2016,07,16,12,32,18.80
2016,07,16,12,33,18.80
2016,07,16,12,34,18.80
2016,07,16,12,35,18.80
2016,07,16,12,36,18.80
2016,07,16,12,37,18.80
2016,07,16,12,38,18.80
2016,07,16,12,39,18.80
2016,07,16,12,40,18.80
2016,07,16,12,41,18.80
2016,07,16,12,42,18.80
2016,07,16,12,43,18.70
2016,07,16,12,44,18.70
2016,07,16,12,45,18.70
2016,07,16,12,46,18.70
2016,07,16,12,47,18.70
2016,07,16,12,48,18.70
2016,07,16,12,49,18.70
2016,07,16,12,50,18.70
2016,07,16,12,51,18.70
2016,07,16,12,52,18.70
2016,07,16,12,53,18.70
2016,07,16,12,54,18.70
2016,07,16,12,55,18.70
2016,07,16,12,56,18.60
2016,07,16,12,57,18.60
2016,07,16,12,58,18.60
2016,07,16,12,59,18.60
2016,07,16,13,00,18.60
2016,07,16,13,01,18.70
2016,07,16,13,02,18.80
2016,07,16,13,03,18.80
2016,07,16,13,04,19.00
2016,07,16,13,05,19.10
2016,07,16,13,06,19.20
2016,07,16,13,07,19.20
2016,07,16,13,08,19.30
2016,07,16,13,09,19.30
2016,07,16,13,10,19.30
2016,07,16,13,11,19.30
2016,07,16,13,12,19.30
2016,07,16,13,13,19.30
2016,07,16,13,14,19.30
2016,07,16,13,15,19.30
2016,07,16,13,16,19.20
2016,07,16,13,17,19.30
2016,07,16,13,18,19.30
2016,07,16,13,19,19.30
2016,07,16,13,20,19.30
2016,07,16,13,21,19.20
2016,07,16,13,22,19.30
2016,07,16,13,23,19.30
2016,07,16,13,24,19.30
2016,07,16,13,25,19.30
2016,07,16,13,26,19.40
2016,07,16,13,27,19.50
2016,07,16,13,28,19.60
2016,07,16,13,29,19.60
2016,07,16,13,30,19.70
2016,07,16,13,31,19.70
2016,07,16,13,32,19.70
2016,07,16,13,33,19.80
2016,07,16,13,34,19.80
2016,07,16,13,35,19.80
2016,07,16,13,36,19.70
2016,07,16,13,37,19.70
2016,07,16,13,38,19.60
2016,07,16,13,39,19.50
2016,07,16,13,40,19.50
2016,07,16,13,41,19.40
2016,07,16,13,42,19.40
2016,07,16,13,43,19.40
2016,07,16,13,44,19.40
2016,07,16,13,45,19.40
2016,07,16,13,46,19.40
2016,07,16,13,47,19.40
2016,07,16,13,48,19.40
2016,07,16,13,49,19.50
2016,07,16,13,50,19.50
2016,07,16,13,51,19.50
2016,07,16,13,52,19.60
2016,07,16,13,53,19.60
2016,07,16,13,54,19.60
2016,07,16,13,55,19.60
2016,07,16,13,56,19.60
2016,07,16,13,57,19.60
2016,07,16,13,58,19.70
2016,07,16,13,59,19.70
2016,07,16,14,00,19.70
2016,07,16,14,01,19.70
2016,07,16,14,02,19.70
2016,07,16,14,03,19.70
2016,07,16,14,04,19.70
2016,07,16,14,05,19.60
2016,07,16,14,06,19.60
2016,07,16,14,07,19.60
2016,07,16,14,08,19.60
2016,07,16,14,09,19.60
2016,07,16,14,10,19.70
2016,07,16,14,11,19.70
2016,07,16,14,12,19.70
2016,07,16,14,13,19.70
2016,07,16,14,14,19.70
2016,07,16,14,15,19.70
2016,07,16,14,16,19.70
2016,07,16,14,17,19.70
2016,07,16,14,18,19.80
2016,07,16,14,19,19.80
2016,07,16,14,20,19.80
2016,07,16,14,21,19.80
2016,07,16,14,22,19.80
2016,07,16,14,23,19.80
2016,07,16,14,24,19.80
2016,07,16,14,25,19.80
2016,07,16,14,26,19.70
2016,07,16,14,27,19.70
2016,07,16,14,28,19.80
2016,07,16,14,29,19.80
2016,07,16,14,30,19.80
2016,07,16,14,31,19.90
2016,07,16,14,32,19.90
2016,07,16,14,33,19.90
2016,07,16,14,34,19.90
2016,07,16,14,35,19.80
2016,07,16,14,36,19.70
2016,07,16,14,37,19.70
2016,07,16,14,38,19.70
2016,07,16,14,39,19.70
2016,07,16,14,40,19.70
2016,07,16,14,41,19.70
2016,07,16,14,42,19.70
2016,07,16,14,43,19.70
2016,07,16,14,44,19.70
2016,07,16,14,45,19.70
2016,07,16,14,46,19.60
2016,07,16,14,47,19.60
2016,07,16,14,48,19.50
2016,07,16,14,49,19.50
2016,07,16,14,50,19.40
2016,07,16,14,51,19.40
2016,07,16,14,52,19.40
2016,07,16,14,53,19.40
2016,07,16,14,54,19.40
2016,07,16,14,55,19.40
2016,07,16,14,56,19.40
2016,07,16,14,57,19.30
2016,07,16,14,58,19.30
2016,07,16,14,59,19.30
2016,07,16,15,00,19.30
2016,07,16,15,01,19.30
2016,07,16,15,02,19.40
2016,07,16,15,03,19.40
2016,07,16,15,04,19.50
2016,07,16,15,05,19.60
2016,07,16,15,06,19.60
2016,07,16,15,07,19.50
2016,07,16,15,08,19.50
2016,07,16,15,09,19.50
2016,07,16,15,10,19.50
2016,07,16,15,11,19.50
2016,07,16,15,12,19.50
2016,07,16,15,13,19.60
2016,07,16,15,14,19.60
2016,07,16,15,15,19.70
2016,07,16,15,16,19.70
2016,07,16,15,17,19.70
2016,07,16,15,18,19.70
2016,07,16,15,19,19.70
2016,07,16,15,20,19.70
2016,07,16,15,21,19.70
2016,07,16,15,22,19.70
2016,07,16,15,23,19.70
2016,07,16,15,24,19.70
2016,07,16,15,25,19.70
2016,07,16,15,26,19.70
2016,07,16,15,27,19.70
2016,07,16,15,28,19.70
2016,07,16,15,29,19.60
2016,07,16,15,30,19.60
2016,07,16,15,31,19.60
2016,07,16,15,32,19.60
2016,07,16,15,33,19.70
2016,07,16,15,34,19.80
2016,07,16,15,35,19.80
2016,07,16,15,36,19.80
2016,07,16,15,37,19.90
2016,07,16,15,38,19.90
2016,07,16,15,39,19.90
2016,07,16,15,40,19.90
2016,07,16,15,41,19.90
2016,07,16,15,42,19.90
2016,07,16,15,43,19.80
2016,07,16,15,44,19.80
2016,07,16,15,45,19.80
2016,07,16,15,46,19.80
2016,07,16,15,47,19.80
2016,07,16,15,48,19.80
2016,07,16,15,49,19.70
2016,07,16,15,50,19.80
2016,07,16,15,51,19.80
2016,07,16,15,52,19.80
2016,07,16,15,53,19.80
2016,07,16,15,54,19.80
2016,07,16,15,55,19.80
2016,07,16,15,56,19.80
2016,07,16,15,57,19.80
2016,07,16,15,58,19.80
2016,07,16,15,59,19.80
2016,07,16,16,00,19.80
2016,07,16,16,01,19.80
2016,07,16,16,02,19.80
2016,07,16,16,03,19.80
2016,07,16,16,04,19.80
2016,07,16,16,05,19.90
2016,07,16,16,06,19.90
2016,07,16,16,07,20.00
2016,07,16,16,08,20.10
2016,07,16,16,09,20.10
2016,07,16,16,10,20.20
2016,07,16,16,11,20.20
2016,07,16,16,12,20.30
2016,07,16,16,13,20.30
2016,07,16,16,14,20.40
2016,07,16,16,15,20.40
2016,07,16,16,16,20.40
2016,07,16,16,17,20.40
2016,07,16,16,18,20.50
2016,07,16,16,19,20.50
2016,07,16,16,20,20.60
2016,07,16,16,21,20.50
2016,07,16,16,22,20.50
2016,07,16,16,23,20.50
2016,07,16,16,24,20.50
2016,07,16,16,25,20.40
2016,07,16,16,26,20.40
2016,07,16,16,27,20.30
2016,07,16,16,28,20.30
2016,07,16,16,29,20.20
2016,07,16,16,30,20.10
2016,07,16,16,31,20.00
2016,07,16,16,32,19.90
2016,07,16,16,33,19.80
2016,07,16,16,34,19.80
2016,07,16,16,35,19.70
2016,07,16,16,36,19.70
2016,07,16,16,37,19.80
2016,07,16,16,38,19.80
2016,07,16,16,39,19.80
2016,07,16,16,40,19.70
2016,07,16,16,41,19.70
2016,07,16,16,42,19.70
2016,07,16,16,43,19.70
2016,07,16,16,44,19.80
2016,07,16,16,45,19.80
2016,07,16,16,46,19.90
2016,07,16,16,47,19.90
2016,07,16,16,48,20.00
2016,07,16,16,49,20.00
2016,07,16,16,50,20.10
2016,07,16,16,51,20.10
2016,07,16,16,52,20.10
2016,07,16,16,53,20.20
2016,07,16,16,54,20.20
2016,07,16,16,55,20.20
2016,07,16,16,56,20.20
2016,07,16,16,57,20.20
2016,07,16,16,58,20.20
2016,07,16,16,59,20.20
2016,07,16,17,00,20.20
2016,07,16,17,01,20.20
2016,07,16,17,02,20.20
2016,07,16,17,03,20.20
2016,07,16,17,04,20.10
2016,07,16,17,05,20.10
2016,07,16,17,06,20.10
2016,07,16,17,07,20.10
2016,07,16,17,08,20.10
2016,07,16,17,09,20.10
2016,07,16,17,10,20.10
2016,07,16,17,11,20.00
2016,07,16,17,12,20.00
2016,07,16,17,13,20.00
2016,07,16,17,14,20.00
2016,07,16,17,15,20.00
2016,07,16,17,16,20.10
2016,07,16,17,17,20.00
2016,07,16,17,18,20.00
2016,07,16,17,19,20.00